Stündliche Wetter Bolshie Karmaly

Heute, 21 April, Mittwoch

Zeit Temperatur Niederschläge Wind Luftdruck Luftfeuchtigkeit
00:00 +1°C° 0 mm 6 m/S 758 mmHg 50%
01:00 +1°C° 0 mm 6 m/S 757 mmHg 50%
02:00 0°C° 0 mm 7 m/S 757 mmHg 50%
03:00 0°C° 0 mm 8 m/S 757 mmHg 50%
04:00 0°C° 0 mm 8 m/S 756 mmHg 50%
05:00 0°C° 0 mm 8 m/S 756 mmHg 50%
06:00 0°C° 0 mm 9 m/S 756 mmHg 50%
07:00 0°C° 0.1 mm 9 m/S 756 mmHg 53%
08:00 0°C° 0.1 mm 9 m/S 755 mmHg 57%
09:00 0°C° 0.1 mm 9 m/S 755 mmHg 60%
10:00 0°C° 0.1 mm 9 m/S 755 mmHg 59%
11:00 +1°C° 0.1 mm 9 m/S 755 mmHg 58%
12:00 +1°C° 0.1 mm 9 m/S 755 mmHg 58%
13:00 0°C° 0.5 mm 9 m/S 755 mmHg 64%
14:00 0°C° 0.5 mm 9 m/S 755 mmHg 70%
15:00 -1°C° 0.5 mm 9 m/S 755 mmHg 76%
16:00 -1°C° 1.4 mm 9 m/S 755 mmHg 83%
17:00 -2°C° 1.4 mm 8 m/S 755 mmHg 90%
18:00 -2°C° 1.4 mm 8 m/S 754 mmHg 97%
19:00 -2°C° 0.5 mm 8 m/S 754 mmHg 96%
20:00 -2°C° 0.5 mm 8 m/S 754 mmHg 95%
21:00 -1°C° 0.5 mm 8 m/S 754 mmHg 94%
22:00 -1°C° 0 mm 8 m/S 754 mmHg 94%
23:00 -1°C° 0 mm 8 m/S 754 mmHg 94%

Morgen, 22 April, Donnerstag

Zeit Temperatur Niederschläge Wind Luftdruck Luftfeuchtigkeit
00:00 -1°C° 0 mm 8 m/S 754 mmHg 94%
01:00 0°C° 0 mm 7 m/S 754 mmHg 95%
02:00 0°C° 0 mm 7 m/S 754 mmHg 95%
03:00 +1°C° 0 mm 6 m/S 754 mmHg 96%
04:00 +1°C° 0 mm 6 m/S 755 mmHg 96%
05:00 +1°C° 0 mm 5 m/S 755 mmHg 96%
06:00 +1°C° 0 mm 5 m/S 755 mmHg 97%
07:00 +1°C° 0 mm 5 m/S 755 mmHg 96%
08:00 +2°C° 0 mm 5 m/S 755 mmHg 96%
09:00 +2°C° 0 mm 5 m/S 756 mmHg 96%
10:00 +3°C° 0 mm 5 m/S 756 mmHg 93%
11:00 +3°C° 0 mm 5 m/S 756 mmHg 91%
12:00 +5°C° 0 mm 5 m/S 756 mmHg 88%
13:00 +6°C° 0 mm 5 m/S 756 mmHg 85%
14:00 +7°C° 0 mm 5 m/S 756 mmHg 81%
15:00 +7°C° 0 mm 5 m/S 756 mmHg 78%
16:00 +7°C° 0 mm 5 m/S 756 mmHg 79%
17:00 +7°C° 0 mm 5 m/S 756 mmHg 81%
18:00 +7°C° 0 mm 6 m/S 756 mmHg 82%
19:00 +5°C° 0 mm 6 m/S 756 mmHg 85%
20:00 +4°C° 0 mm 6 m/S 756 mmHg 89%
21:00 +3°C° 0 mm 6 m/S 756 mmHg 92%
22:00 +3°C° 0 mm 5 m/S 756 mmHg 93%
23:00 +3°C° 0 mm 5 m/S 756 mmHg 93%

übermorgen, 23 April, Freitag

Zeit Temperatur Niederschläge Wind Luftdruck Luftfeuchtigkeit
00:00 +3°C° 0 mm 5 m/S 756 mmHg 94%
01:00 +3°C° 0 mm 4 m/S 756 mmHg 94%
02:00 +3°C° 0 mm 4 m/S 757 mmHg 93%
03:00 +3°C° 0 mm 3 m/S 757 mmHg 93%
04:00 +3°C° 0 mm 3 m/S 757 mmHg 93%
05:00 +3°C° 0 mm 3 m/S 757 mmHg 92%
06:00 +3°C° 0 mm 3 m/S 757 mmHg 92%
07:00 +4°C° 0 mm 3 m/S 757 mmHg 88%
08:00 +7°C° 0 mm 3 m/S 758 mmHg 83%
09:00 +8°C° 0 mm 3 m/S 758 mmHg 78%
10:00 +9°C° 0 mm 3 m/S 758 mmHg 74%
11:00 +10°C° 0 mm 2 m/S 757 mmHg 69%
12:00 +12°C° 0 mm 2 m/S 757 mmHg 64%
13:00 +12°C° 0 mm 2 m/S 757 mmHg 63%
14:00 +12°C° 0 mm 2 m/S 757 mmHg 62%
15:00 +13°C° 0 mm 2 m/S 757 mmHg 61%
16:00 +12°C° 0 mm 2 m/S 757 mmHg 65%
17:00 +10°C° 0 mm 2 m/S 757 mmHg 68%
18:00 +10°C° 0 mm 3 m/S 756 mmHg 72%
19:00 +9°C° 0 mm 3 m/S 756 mmHg 76%
20:00 +8°C° 0 mm 2 m/S 756 mmHg 80%
21:00 +7°C° 0 mm 2 m/S 756 mmHg 83%
22:00 +7°C° 0 mm 2 m/S 755 mmHg 85%
23:00 +6°C° 0 mm 2 m/S 755 mmHg 86%

24 April, Samstag

Zeit Temperatur Niederschläge Wind Luftdruck Luftfeuchtigkeit
00:00 +6°C° 0 mm 2 m/S 755 mmHg 87%
01:00 +4°C° 0 mm 3 m/S 754 mmHg 88%
02:00 +4°C° 0 mm 3 m/S 754 mmHg 90%
03:00 +4°C° 0 mm 3 m/S 753 mmHg 91%
04:00 +4°C° 0 mm 3 m/S 753 mmHg 91%
05:00 +4°C° 0 mm 3 m/S 753 mmHg 91%
06:00 +4°C° 0 mm 4 m/S 752 mmHg 91%
07:00 +4°C° 0 mm 4 m/S 752 mmHg 88%
08:00 +5°C° 0 mm 4 m/S 751 mmHg 86%
09:00 +7°C° 0 mm 3 m/S 751 mmHg 83%
10:00 +7°C° 0 mm 3 m/S 751 mmHg 83%
11:00 +7°C° 0 mm 3 m/S 750 mmHg 84%
12:00 +7°C° 0 mm 3 m/S 750 mmHg 84%
13:00 +7°C° 0 mm 3 m/S 750 mmHg 86%
14:00 +7°C° 0 mm 3 m/S 749 mmHg 88%
15:00 +5°C° 0 mm 3 m/S 749 mmHg 89%
16:00 +6°C° 0 mm 2 m/S 749 mmHg 90%
17:00 +6°C° 0 mm 2 m/S 749 mmHg 91%
18:00 +6°C° 0 mm 2 m/S 748 mmHg 92%
19:00 +6°C° 0 mm 2 m/S 748 mmHg 93%
20:00 +6°C° 0 mm 1 m/S 748 mmHg 94%
21:00 +6°C° 0 mm 1 m/S 747 mmHg 94%
22:00 +5°C° 0 mm 2 m/S 747 mmHg 94%
23:00 +5°C° 0 mm 2 m/S 747 mmHg 95%

25 April, Sonntag

Zeit Temperatur Niederschläge Wind Luftdruck Luftfeuchtigkeit
00:00 +5°C° 0 mm 2 m/S 746 mmHg 95%
01:00 +5°C° 0 mm 2 m/S 746 mmHg 95%
02:00 +3°C° 0 mm 3 m/S 745 mmHg 94%
03:00 +3°C° 0 mm 3 m/S 745 mmHg 94%
04:00 +3°C° 0.8 mm 4 m/S 745 mmHg 95%
05:00 +3°C° 0.8 mm 4 m/S 744 mmHg 95%
06:00 +2°C° 0.8 mm 5 m/S 744 mmHg 96%
07:00 +3°C° 0.9 mm 5 m/S 745 mmHg 92%
08:00 +3°C° 0.9 mm 6 m/S 745 mmHg 88%
09:00 +3°C° 0.9 mm 7 m/S 746 mmHg 84%
10:00 +5°C° 0.1 mm 7 m/S 746 mmHg 74%
11:00 +6°C° 0.1 mm 8 m/S 747 mmHg 64%
12:00 +9°C° 0.1 mm 8 m/S 747 mmHg 55%
13:00 +9°C° 0.1 mm 8 m/S 747 mmHg 52%
14:00 +9°C° 0.1 mm 7 m/S 748 mmHg 50%
15:00 +10°C° 0.1 mm 7 m/S 748 mmHg 47%
16:00 +9°C° 0.1 mm 6 m/S 748 mmHg 51%
17:00 +8°C° 0.1 mm 5 m/S 748 mmHg 54%
18:00 +8°C° 0.1 mm 5 m/S 749 mmHg 58%
19:00 +6°C° 0.1 mm 4 m/S 749 mmHg 63%
20:00 +5°C° 0.1 mm 4 m/S 749 mmHg 68%
21:00 +4°C° 0.1 mm 3 m/S 750 mmHg 73%
22:00 +4°C° 0 mm 3 m/S 750 mmHg 75%
23:00 +3°C° 0 mm 3 m/S 750 mmHg 77%

26 April, Montag

Zeit Temperatur Niederschläge Wind Luftdruck Luftfeuchtigkeit
00:00 +3°C° 0 mm 3 m/S 751 mmHg 79%
01:00 +2°C° 0 mm 3 m/S 751 mmHg 80%
02:00 +2°C° 0 mm 3 m/S 751 mmHg 81%
03:00 +2°C° 0 mm 3 m/S 751 mmHg 82%
04:00 +3°C° 0 mm 2 m/S 751 mmHg 80%
05:00 +4°C° 0 mm 2 m/S 751 mmHg 79%
06:00 +4°C° 0 mm 2 m/S 752 mmHg 78%
07:00 +5°C° 0 mm 2 m/S 752 mmHg 71%
08:00 +6°C° 0 mm 2 m/S 752 mmHg 65%
09:00 +8°C° 0 mm 2 m/S 752 mmHg 58%
10:00 +8°C° 0 mm 2 m/S 752 mmHg 54%
11:00 +9°C° 0 mm 2 m/S 752 mmHg 49%
12:00 +11°C° 0 mm 1 m/S 752 mmHg 45%
13:00 +11°C° 0 mm 1 m/S 752 mmHg 44%
14:00 +11°C° 0 mm 1 m/S 751 mmHg 43%
15:00 +11°C° 0 mm 1 m/S 751 mmHg 43%
16:00 +10°C° 0 mm 2 m/S 751 mmHg 46%
17:00 +9°C° 0 mm 2 m/S 751 mmHg 50%
18:00 +9°C° 0 mm 2 m/S 750 mmHg 54%
19:00 +8°C° 0 mm 2 m/S 750 mmHg 55%
20:00 +7°C° 0 mm 3 m/S 750 mmHg 56%
21:00 +5°C° 0 mm 3 m/S 749 mmHg 58%
22:00 +5°C° 0 mm 3 m/S 749 mmHg 59%
23:00 +5°C° 0 mm 3 m/S 748 mmHg 60%
Mehr zeigen

Wir brauchen deine Erlaubnis

Meteoprog und unser Service Anbieter werden persönliche Daten aufbewahren, so wie Cookies, Geräte Bezeichnung oder ähnliche Technologien von deinem Gerät und Prozess, so wie Persönliche Daten Inhalte und Werbungen, genauso wie social Media und den Verkehr zu analysieren.

  • Aufbewahrung und/oder Zugang zu deiner Geräte Informationen.

    Cookies, Geräte Bezeichnung oder andere Informationen, können aufbewahrt oder Zugang zu deinem Gerät erhalten, für den Grund, der oben angegeben wird.

  • Personalisierte Werbung und Inhalte, Messungen, Einblick in das Publikum und Produkt Entwicklung.

    Werbungen und Inhalte können personalisiert werden, basierend auf ein Profil. Mehr Daten können besser personalisierte Werbungen und Inhalte hinzufügen. Werbung und Inhalte können gezeigt und gemessen werden. Einblicke über das Publikum, welche die Werbung gesehen haben und den Inhalt, können abgeleitet werden. So wie Daten können genutzt werden, um es zu verbessern oder die Benutzer Erfahrung zu verbessern das System und die Software.

Wenn du “Ich stimme zu” klickst, erlaubst du uns, die Cookies zu benutzen die Geräte Bezeichnung, den Web oder ähnliche Technologien zu benutzen. Deine Settings, können in deinem Gerät bei deinem Browser geändert werden.

Für den bestimmten Zweck, berechtigten Interessen beruhen darauf, mehr als auf den Inhalt. Du kannst mehr darüber in unseren Privaten und Cookie Politik lesen.